EW0624 Weather Reports


Display with metric or nautical units.
time (UTC)temp
F
wind
direction
speed
MPH
gust
MPH
rain 1hr
in
rain 24hr
in
rain mn
in
humidity
%
barometer
mb
20260903215904 75 165 2.0 5.0 0.00 0.00 0.00 80 1019.7
20260903215404 75 165 1.0 3.0 0.00 0.00 0.00 80 1019.6
20260903214904 75 165 2.0 5.0 0.00 0.00 0.00 79 1019.7
20260903214404 75 165 0.0 1.0 0.00 0.00 0.00 80 1019.7
20260903213904 76 165 1.0 3.0 0.00 0.00 0.00 79 1019.8
20260903213404 76 165 0.0 1.0 0.00 0.00 0.00 79 1019.7
20260903212904 76 164 1.0 3.0 0.00 0.00 0.00 79 1019.8
20260903212404 76 165 0.0 0.0 0.00 0.00 0.00 79 1019.8
20260903211904 76 165 0.0 0.0 0.00 0.00 0.00 79 1019.9
20260903211404 76 165 0.0 1.0 0.00 0.00 0.00 79 1019.9
20260903210904 76 165 0.0 1.0 0.00 0.00 0.00 79 1019.9
20260903210404 77 165 0.0 2.0 0.00 0.00 0.00 79 1019.9
20260903205904 77 165 1.0 2.0 0.00 0.00 0.00 79 1019.9
20260903204904 77 164 2.0 3.0 0.00 0.00 0.00 78 1020.0
20260903204404 77 165 0.0 1.0 0.00 0.00 0.00 79 1020.0
20260903203904 77 165 1.0 3.0 0.00 0.00 0.00 79 1020.0
20260903203403 77 165 0.0 1.0 0.00 0.00 0.00 79 1020.0
20260903202904 78 165 1.0 3.0 0.00 0.00 0.00 79 1020.0
20260903202404 78 165 2.0 3.0 0.00 0.00 0.00 78 1019.9
20260903201904 78 165 3.0 5.0 0.00 0.00 0.00 78 1019.8
20260903200904 78 164 3.0 5.0 0.00 0.00 0.00 78 1019.7
20260903200404 79 161 2.0 3.0 0.00 0.00 0.00 80 1019.7
20260903195904 79 160 2.0 5.0 0.00 0.00 0.00 81 1019.7
20260903195404 80 160 2.0 5.0 0.00 0.00 0.00 80 1019.6
20260903194904 80 80 2.0 3.0 0.00 0.00 0.00 79 1019.6
20260903194404 80 60 0.0 0.0 0.00 0.00 0.00 78 1019.6
20260903193904 80 60 0.0 0.0 0.00 0.00 0.00 78 1019.5
20260903193404 81 60 0.0 0.0 0.00 0.00 0.00 77 1019.5
20260903192904 81 60 0.0 0.0 0.00 0.00 0.00 77 1019.4
20260903191903 81 60 0.0 0.0 0.00 0.00 0.00 77 1019.4
20260903191404 81 60 0.0 0.0 0.00 0.00 0.00 77 1019.4
20260903190904 81 60 0.0 0.0 0.00 0.00 0.00 77 1019.4
20260903190404 81 60 0.0 0.0 0.00 0.00 0.00 76 1019.4
20260903185904 81 60 0.0 0.0 0.00 0.00 0.00 76 1019.4
20260903184904 82 60 0.0 0.0 0.00 0.00 0.00 75 1019.3
20260903183904 82 60 0.0 1.0 0.00 0.00 0.00 75 1019.4
20260903183404 82 60 1.0 2.0 0.00 0.00 0.00 75 1019.4
20260903182904 82 60 0.0 2.0 0.00 0.00 0.00 75 1019.4
20260903182404 82 60 1.0 3.0 0.00 0.00 0.00 75 1019.4
20260903181904 82 60 1.0 3.0 0.00 0.00 0.00 75 1019.4
20260903181404 82 60 3.0 5.0 0.00 0.00 0.00 74 1019.4
20260903180904 82 51 2.0 3.0 0.00 0.00 0.00 74 1019.4
20260903180404 82 43 3.0 3.0 0.00 0.00 0.00 74 1019.5
20260903175905 82 50 3.0 5.0 0.00 0.00 0.00 74 1019.5
20260903175404 82 51 2.0 3.0 0.00 0.00 0.00 73 1019.6
20260903174904 82 51 2.0 3.0 0.00 0.00 0.00 73 1019.7
20260903174404 82 51 2.0 3.0 0.00 0.00 0.00 73 1019.6
20260903173904 82 42 2.0 5.0 0.00 0.00 0.00 74 1019.7
20260903172904 82 58 5.0 8.0 0.00 0.00 0.00 73 1019.8
20260903172404 82 63 2.0 5.0 0.00 0.00 0.00 74 1019.8
20260903171923 81 61 2.0 3.0 0.00 0.00 0.00 74 1020.0
20260903171406 81 70 3.0 6.0 0.00 0.00 0.00 74 1020.0
20260903170928 81 39 5.0 7.0 0.00 0.00 0.00 74 1020.0
20260903165904 81 36 5.0 7.0 0.00 0.00 0.00 74 1020.1
20260903164904 81 40 4.0 6.0 0.00 0.00 0.00 74 1020.1
20260903164404 81 56 3.0 6.0 0.00 0.00 0.00 74 1020.1
20260903163404 80 40 5.0 8.0 0.00 0.00 0.00 75 1020.2
20260903162904 80 50 4.0 8.0 0.00 0.00 0.00 75 1020.2
20260903162404 80 72 5.0 8.0 0.00 0.00 0.00 75 1020.2
20260903161404 80 68 6.0 9.0 0.00 0.00 0.00 76 1020.3
20260903160404 80 53 6.0 10.0 0.00 0.00 0.00 76 1020.3
20260903155904 80 60 5.0 10.0 0.00 0.00 0.00 75 1020.3
20260903155404 80 57 4.0 9.0 0.00 0.00 0.00 75 1020.4
20260903154904 80 67 4.0 10.0 0.00 0.00 0.00 75 1020.3
20260903153904 80 28 6.0 10.0 0.00 0.00 0.00 75 1020.4
20260903153404 81 60 6.0 9.0 0.00 0.00 0.00 74 1020.5
20260903152904 81 25 6.0 12.0 0.00 0.00 0.00 74 1020.5
20260903152404 81 34 5.0 12.0 0.00 0.00 0.00 73 1020.6
20260903151904 81 51 5.0 10.0 0.00 0.00 0.00 73 1020.6
20260903151404 82 72 3.0 12.0 0.00 0.00 0.00 72 1020.6
20260903150904 81 65 5.0 10.0 0.00 0.00 0.00 73 1020.7
20260903145904 82 89 3.0 8.0 0.00 0.00 0.00 72 1020.6
20260903145405 82 45 5.0 10.0 0.00 0.00 0.00 72 1020.7
20260903144405 82 44 4.0 9.0 0.00 0.00 0.00 72 1020.8
20260903143904 82 58 3.0 9.0 0.00 0.00 0.00 71 1020.8
20260903143404 82 55 5.0 10.0 0.00 0.00 0.00 70 1020.9
20260903141904 82 20 4.0 10.0 0.00 0.00 0.00 71 1020.9
20260903141404 82 21 5.0 9.0 0.00 0.00 0.00 69 1021.0
20260903140904 82 65 1.0 6.0 0.00 0.00 0.00 70 1021.0
20260903140404 82 34 3.0 8.0 0.00 0.00 0.00 69 1021.0
20260903135404 81 64 2.0 6.0 0.00 0.00 0.00 70 1021.0
20260903134904 81 101 3.0 7.0 0.00 0.00 0.00 71 1021.0
20260903134404 81 49 2.0 6.0 0.00 0.00 0.00 73 1021.0
20260903133904 80 66 2.0 6.0 0.00 0.00 0.00 75 1021.1
20260903133404 80 70 3.0 9.0 0.00 0.00 0.00 75 1021.0
20260903132904 80 27 3.0 10.0 0.00 0.00 0.00 75 1020.9
20260903132404 79 78 3.0 8.0 0.00 0.00 0.00 76 1021.1
20260903131405 79 81 2.0 8.0 0.00 0.00 0.00 77 1021.1
20260903130904 78 54 3.0 9.0 0.00 0.00 0.00 77 1021.1
20260903130405 78 66 5.0 9.0 0.00 0.00 0.00 77 1021.1
20260903125905 78 63 4.0 7.0 0.00 0.00 0.00 77 1021.2
20260903125404 78 46 4.0 9.0 0.00 0.00 0.00 78 1021.2
20260903124404 78 66 3.0 9.0 0.00 0.00 0.00 79 1021.3
20260903123903 78 76 5.0 9.0 0.00 0.00 0.00 79 1021.3
20260903123404 77 71 4.0 9.0 0.00 0.00 0.00 79 1021.3
20260903122903 77 75 6.0 12.0 0.00 0.00 0.00 78 1021.4
20260903122405 77 43 4.0 5.0 0.00 0.00 0.00 78 1021.3
20260903121904 78 64 5.0 9.0 0.00 0.00 0.00 78 1021.4
20260903121404 78 54 3.0 7.0 0.00 0.00 0.00 78 1021.4
20260903120903 77 42 3.0 9.0 0.00 0.00 0.00 79 1021.4
20260903120404 77 61 4.0 6.0 0.00 0.00 0.00 79 1021.4
20260903115903 77 61 3.0 8.0 0.00 0.00 0.00 78 1021.5
20260903115404 77 38 3.0 10.0 0.00 0.00 0.00 78 1021.6
20260903114903 76 16 5.0 10.0 0.00 0.00 0.00 79 1021.6
20260903114404 76 30 2.0 9.0 0.00 0.00 0.00 80 1021.7
20260903113904 75 51 2.0 10.0 0.00 0.00 0.00 81 1021.7
20260903112404 75 34 5.0 7.0 0.00 0.00 0.00 81 1021.8
20260903111904 75 107 4.0 9.0 0.00 0.00 0.00 82 1021.8
20260903111404 74 21 2.0 6.0 0.00 0.00 0.00 83 1021.9
20260903110404 73 17 3.0 9.0 0.00 0.00 0.00 85 1022.0
20260903105903 73 54 4.0 7.0 0.00 0.00 0.00 85 1022.1
20260903105404 72 26 3.0 8.0 0.00 0.00 0.00 86 1022.1
20260903104903 72 34 5.0 9.0 0.00 0.00 0.00 86 1022.2
20260903103404 71 64 4.0 7.0 0.00 0.00 0.00 86 1022.3
20260903102904 71 42 2.0 6.0 0.00 0.00 0.00 87 1022.3
20260903102404 70 51 2.0 5.0 0.00 0.00 0.00 88 1022.4
20260903101904 70 10 2.0 5.0 0.00 0.00 0.00 88 1022.4
20260903101405 70 345 3.0 6.0 0.00 0.00 0.00 89 1022.4
20260903100911 69 38 2.0 5.0 0.00 0.00 0.00 89 1022.4
20260903100408 69 17 2.0 5.0 0.00 0.00 0.00 88 1022.4
20260903095904 69 62 3.0 3.0 0.00 0.00 0.00 89 1022.4
20260903095404 69 51 2.0 3.0 0.00 0.00 0.00 89 1022.4
20260903094904 69 57 1.0 6.0 0.00 0.00 0.00 89 1022.4
20260903094404 69 1 2.0 6.0 0.00 0.00 0.00 90 1022.4
20260903093904 69 33 2.0 7.0 0.00 0.00 0.00 90 1022.4
20260903093404 69 57 2.0 5.0 0.00 0.00 0.00 89 1022.3
20260903092403 70 53 3.0 7.0 0.00 0.00 0.00 88 1022.3
20260903091904 70 89 1.0 3.0 0.00 0.00 0.00 90 1022.3
20260903091403 69 113 1.0 3.0 0.00 0.00 0.00 93 1022.3
20260903090403 68 185 0.0 2.0 0.00 0.00 0.00 97 1022.2
20260903085404 67 185 1.0 3.0 0.00 0.00 0.00 99 1022.2
20260903084904 66 186 0.0 1.0 0.00 0.00 0.00 100 1022.2
20260903084404 65 186 0.0 2.0 0.00 0.00 0.00 100 1022.2
20260903083903 64 186 1.0 3.0 0.00 0.00 0.00 100 1022.2
20260903083404 64 186 1.0 3.0 0.00 0.00 0.00 100 1022.2
20260903082904 64 200 3.0 5.0 0.00 0.00 0.00 100 1022.2
20260903082404 64 200 3.0 5.0 0.00 0.00 0.00 100 1022.3
20260903081904 63 183 1.0 3.0 0.00 0.00 0.00 100 1022.3
20260903081404 63 182 1.0 3.0 0.00 0.00 0.00 100 1022.4
20260903080904 63 182 3.0 3.0 0.00 0.00 0.00 100 1022.4
20260903080404 62 182 0.0 3.0 0.00 0.00 0.00 100 1022.3
20260903075903 62 182 1.0 5.0 0.00 0.00 0.00 100 1022.3
20260903075407 62 187 5.0 7.0 0.00 0.00 0.00 100 1022.4
20260903074904 62 197 2.0 6.0 0.00 0.00 0.00 100 1022.3
20260903074404 62 199 3.0 6.0 0.00 0.00 0.00 100 1022.2
20260903073911 62 212 0.0 2.0 0.00 0.00 0.00 100 1022.3
20260903073404 62 211 0.0 2.0 0.00 0.00 0.00 100 1022.3
20260903072904 62 212 0.0 0.0 0.00 0.00 0.00 100 1022.3
20260903072404 61 212 0.0 0.0 0.00 0.00 0.00 100 1022.4
20260903071904 61 212 0.0 0.0 0.00 0.00 0.00 100 1022.3
20260903071404 61 212 0.0 0.0 0.00 0.00 0.00 100 1022.3
20260903070904 61 212 0.0 1.0 0.00 0.00 0.00 100 1022.3
20260903070404 61 212 1.0 3.0 0.00 0.00 0.00 100 1022.3
20260903065404 61 212 0.0 0.0 0.00 0.00 0.00 100 1022.3
20260903064904 61 212 0.0 0.0 0.00 0.00 0.00 100 1022.2
20260903064404 61 212 0.0 0.0 0.00 0.00 0.00 100 1022.3
20260903063904 61 212 0.0 0.0 0.00 0.00 0.00 100 1022.3
20260903063404 61 212 0.0 0.0 0.00 0.00 0.00 100 1022.3
20260903062404 61 212 0.0 0.0 0.00 0.00 0.00 100 1022.2
20260903061904 61 212 0.0 0.0 0.00 0.00 0.00 100 1022.2
20260903061404 61 212 0.0 0.0 0.00 0.00 0.00 100 1022.2
20260903060904 61 212 0.0 0.0 0.00 0.00 0.00 100 1022.2
20260903060404 61 212 0.0 0.0 0.00 0.00 0.00 100 1022.1
20260903055904 61 212 0.0 0.0 0.00 0.00 0.00 100 1022.2
20260903055404 61 212 0.0 0.0 0.00 0.00 0.00 100 1022.1
20260903054904 61 212 0.0 0.0 0.00 0.00 0.00 100 1022.0
20260903054404 61 212 0.0 0.0 0.00 0.00 0.00 100 1022.1
20260903053904 61 212 0.0 0.0 0.00 0.00 0.00 100 1022.1
20260903053404 61 212 0.0 0.0 0.00 0.00 0.00 100 1022.2
20260903052404 61 212 0.0 0.0 0.00 0.00 0.00 100 1022.0
20260903051904 61 212 0.0 0.0 0.00 0.00 0.00 100 1022.2
20260903051404 61 213 0.0 0.0 0.00 0.00 0.00 100 1022.2
20260903050404 61 213 0.0 0.0 0.00 0.00 0.00 100 1022.1
20260903045904 61 214 0.0 0.0 0.00 0.00 0.00 100 1022.1
20260903045404 61 214 0.0 0.0 0.00 0.00 0.00 100 1022.2
20260903044904 61 214 0.0 0.0 0.00 0.00 0.00 100 1022.2
20260903044404 61 214 0.0 0.0 0.00 0.00 0.00 100 1022.3
20260903043904 61 214 0.0 0.0 0.00 0.00 0.00 100 1022.2
20260903043404 61 215 0.0 0.0 0.00 0.00 0.00 100 1022.2
20260903042403 61 214 0.0 0.0 0.00 0.00 0.00 100 1022.2
20260903041904 62 213 0.0 0.0 0.00 0.00 0.00 100 1022.2
20260903041404 62 213 0.0 0.0 0.00 0.00 0.00 100 1022.2
20260903040904 62 213 0.0 0.0 0.00 0.00 0.00 100 1022.2
20260903040404 62 213 0.0 0.0 0.00 0.00 0.00 100 1022.2
20260903035904 62 215 0.0 0.0 0.00 0.00 0.00 100 1022.2
20260903035404 62 215 0.0 0.0 0.00 0.00 0.00 100 1022.2
20260903034904 62 215 0.0 0.0 0.00 0.00 0.00 100 1022.2
20260903034404 62 215 0.0 0.0 0.00 0.00 0.00 100 1022.3
20260903033904 63 215 0.0 0.0 0.00 0.00 0.00 100 1022.3
20260903033404 62 215 0.0 0.0 0.00 0.00 0.00 100 1022.4
20260903032404 62 215 0.0 0.0 0.00 0.00 0.00 100 1022.4
20260903031403 62 215 0.0 0.0 0.00 0.00 0.00 100 1022.5
20260903030405 62 215 0.0 0.0 0.00 0.00 0.00 100 1022.5
20260903025404 62 215 0.0 0.0 0.00 0.00 0.00 99 1022.6
20260903024904 62 215 0.0 0.0 0.00 0.00 0.00 99 1022.7
20260903024404 62 215 0.0 0.0 0.00 0.00 0.00 99 1022.7
20260903023904 62 215 0.0 0.0 0.00 0.00 0.00 99 1022.8
20260903023404 62 215 0.0 0.0 0.00 0.00 0.00 99 1022.7
20260903022903 62 215 0.0 0.0 0.00 0.00 0.00 99 1022.7
20260903021904 62 227 1.0 2.0 0.00 0.00 0.00 99 1022.7
20260903021404 63 300 0.0 0.0 0.00 0.00 0.00 99 1022.8
20260903020904 63 300 0.0 0.0 0.00 0.00 0.00 98 1022.7
20260903015904 63 300 0.0 0.0 0.00 0.00 0.00 99 1022.9
20260903015404 63 300 0.0 0.0 0.00 0.00 0.00 98 1022.9
20260903014904 63 300 0.0 0.0 0.00 0.00 0.00 98 1022.9
20260903013904 63 300 0.0 0.0 0.00 0.00 0.00 98 1023.0
20260903013404 63 300 0.0 0.0 0.00 0.00 0.00 98 1023.0
20260903012904 63 300 0.0 0.0 0.00 0.00 0.00 98 1023.0
20260903012403 64 300 0.0 0.0 0.00 0.00 0.00 98 1022.9
20260903011904 64 300 0.0 0.0 0.00 0.00 0.00 98 1022.9
20260903011404 64 300 0.0 1.0 0.00 0.00 0.00 98 1022.9
20260903010904 64 300 0.0 3.0 0.00 0.00 0.00 98 1023.0
20260903010404 64 54 0.0 1.0 0.00 0.00 0.00 98 1023.0
20260903005903 64 54 0.0 0.0 0.00 0.00 0.00 98 1023.0
20260903004904 64 54 0.0 0.0 0.00 0.00 0.00 98 1023.0
20260903004404 64 54 0.0 0.0 0.00 0.00 0.00 98 1023.0
20260903003904 64 54 0.0 0.0 0.00 0.00 0.00 98 1023.0
20260903003404 64 55 0.0 0.0 0.00 0.00 0.00 98 1023.0
20260903002904 64 55 0.0 0.0 0.00 0.00 0.00 97 1023.0
20260903002405 64 55 0.0 0.0 0.00 0.00 0.00 97 1023.0
20260903001904 64 54 0.0 0.0 0.00 0.00 0.00 97 1023.0
20260903001404 64 54 0.0 0.0 0.00 0.00 0.00 97 1022.9
20260903000904 64 54 0.0 0.0 0.00 0.00 0.00 97 1022.9
20260903000404 65 54 0.0 0.0 0.00 0.00 0.00 97 1022.9
20260902235904 65 54 0.0 0.0 0.00 0.00 0.00 97 1023.0
20260902235403 65 54 0.0 0.0 0.00 0.00 0.00 97 1023.0
20260902234904 65 54 0.0 0.0 0.00 0.00 0.00 97 1023.0
20260902233904 65 54 0.0 0.0 0.00 0.00 0.00 96 1023.1
20260902233404 65 54 0.0 0.0 0.00 0.00 0.00 96 1023.1
20260902232904 65 54 0.0 0.0 0.00 0.00 0.00 96 1023.2
20260902232403 65 54 0.0 0.0 0.00 0.00 0.00 96 1023.1
20260902231904 65 54 0.0 0.0 0.00 0.00 0.00 96 1023.1
20260902231404 65 54 0.0 0.0 0.00 0.00 0.00 96 1023.1
20260902230904 65 54 0.0 0.0 0.00 0.00 0.00 96 1023.2
20260902230404 65 54 0.0 0.0 0.00 0.00 0.00 96 1023.1
20260902225904 65 54 0.0 0.0 0.00 0.00 0.00 96 1023.1
20260902225404 65 54 0.0 0.0 0.00 0.00 0.00 96 1023.1
20260902224904 65 54 0.0 0.0 0.00 0.00 0.00 96 1023.1
20260902223904 66 54 0.0 0.0 0.00 0.00 0.00 95 1023.1
20260902223404 65 54 0.0 0.0 0.00 0.00 0.00 95 1023.0
20260902222904 66 54 0.0 0.0 0.00 0.00 0.00 95 1023.0
20260902222404 66 54 0.0 0.0 0.00 0.00 0.00 95 1023.0
20260902221904 66 54 0.0 0.0 0.00 0.00 0.00 95 1023.1
20260902221404 66 54 0.0 0.0 0.00 0.00 0.00 95 1023.1
20260902220906 66 55 0.0 1.0 0.00 0.00 0.00 95 1023.0